Location: Strawberry
(45.6646°N, 111.9596°W)
Time: 09:08:21
(UTC+00:00)

AO-73 - Visible Passes

Search period start: 04 March 2024 00:00
Search period end: 14 March 2024 00:00
Orbit: 562 x 633 km, 97.7° (Epoch: 03 March)

Date Brightness Start Highest point End Pass type
(mag) Time Alt. Az. Time Alt. Az. Time Alt. Az.
04 Mar ? 11:40:43 10° NNW 11:40:59 11° NNW 11:40:59 11° NNW visible
05 Mar ? 11:51:17 10° NNW 11:51:32 11° NNW 11:51:32 11° NNW visible
06 Mar ? 10:25:12 10° NNE 10:25:23 11° NNE 10:25:23 11° NNE visible
06 Mar ? 12:01:56 10° NNW 12:02:04 10° NNW 12:02:04 10° NNW visible
07 Mar ? 10:35:25 10° NNE 10:35:54 13° NNE 10:35:54 13° NNE visible
08 Mar ? 10:45:40 10° NNE 10:46:26 15° NNE 10:46:26 15° NNE visible
09 Mar ? 10:55:57 10° N 10:56:57 17° N 10:56:57 17° N visible
10 Mar ? 11:06:14 10° N 11:07:27 19° N 11:07:27 19° N visible
11 Mar ? 11:16:34 10° N 11:17:57 20° N 11:17:57 20° N visible
12 Mar ? 09:51:41 10° NE 09:51:44 10° NE 09:51:44 10° NE visible
12 Mar ? 11:26:55 10° N 11:28:25 20° NNW 11:28:25 20° NNW visible
13 Mar ? 10:01:38 10° NE 10:02:13 13° NE 10:02:13 13° NE visible
13 Mar ? 11:37:19 10° N 11:38:54 19° NNW 11:38:54 19° NNW visible
